Powrót do katalogu

BREEZE-M DEB

AktywnyHEO
NORAD 37205·DEBRIS·🇷🇺 Russia

Wystrzelony Mar 14, 2008 z Baikonur Cosmodrome

Loading…

Następne Przeloty (najbliższe 24 godziny)

TLE

ŚwieżeSource: Space-Track

Epoka: Sep 13, 2026, 07:30 UTC

1 37205U 08011K   26256.31265402 -.00000117  00000-0  00000-0 0  9991
2 37205  49.3097  21.8123 6365404 210.8143  87.7463  3.05953192 24115

Śledź BREEZE-M DEB w czasie rzeczywistym z AllMySat

Download on the App Store